| Date | Temp | Humidity | Rainfall | Dew Point | Wind Direction | Wind Speed | Wind Pressure | Condition | Visibility |
|---|---|---|---|---|---|---|---|---|---|
| 2025-04-21 16:00:48 | 29 | 85 | 0.1 | 26 | 260 | 5.7 | 1008 | Thundershowers | 06 KM |
| 2025-04-21 15:01:02 | 30 | 82 | 0.01 | 26 | 290 | 17.1 | 1008 | Thundershowers | 10 KM |
| 2025-04-21 14:00:33 | 28 | 87 | 0.01 | 26 | 300 | 28.5 | 1009 | Shower Day | 09 KM |
| 2025-04-21 13:07:10 | 32 | 68 | 25 | 280 | 15.2 | 1010 | Partly Cloudy (Day) | 20 KM | |
| 2025-04-21 11:57:42 | 31 | 66 | 25 | 220 | 13.3 | 1011 | Partly Cloudy (Day) | 20 KM | |
| 2025-04-21 11:03:51 | 31 | 70 | 25 | 220 | 13.3 | 1012 | Partly Cloudy (Day) | 20 KM | |
| 2025-04-21 09:59:20 | 30 | 74 | 0.0 | 25 | 200 | 11.4 | 1012 | Partly Cloudy (Day) | 20 KM |
| 2025-04-21 08:58:45 | 29 | 77 | 0.0 | 24 | 190 | 9.5 | 1012 | Partly Cloudy (Day) | 20 km |
| 2025-04-21 08:05:46 | 27 | 86 | 24 | 200 | 11.4 | 1012 | Partly Cloudy (Day) | 20KM | |
| 2025-04-21 06:59:49 | 25 | 92 | 24 | 200 | 7.6 | 1010 | Cloudy | 15KM | |
| 2025-04-21 05:58:43 | 25 | 95 | 24 | 180 | 5.7 | 1010 | Lightning | 10KM | |
| 2025-04-21 05:03:00 | 25 | 95 | 24 | 190 | 7.6 | 1009 | Lightning | 10KM | |
| 2025-04-21 04:00:08 | 25 | 90 | 24 | 180 | 5.7 | 1009 | Lightning | 10KM | |
| 2025-04-21 03:00:44 | 25 | 94 | 24 | 190 | 7.6 | 1009 | Partly Cloudy (Night) | 10KM | |
| 2025-04-21 02:06:41 | 25 | 97 | 0 | 24 | 200 | 3.8 | 1010 | Night Thunderstorm | 10 KM |
| 2025-04-21 00:59:36 | 25 | 96 | 0 | 24 | 170 | 7.6 | 1010 | Night Thunderstorm | 10 KM |
| 2025-04-21 00:01:10 | 25 | 98 | 0 | 24 | 080 | 5.7 | 1011 | Night Thunderstorm | 10 KM |
| 2025-04-20 23:02:28 | 25 | 97 | 0 | 24 | 350 | 7.6 | 1011 | Thundershowers | 8 KM |
| 2025-04-20 22:01:44 | 24 | 98 | 0 | 23 | 280 | 15.2 | 1010 | Thundershowers | 8 KM |
| 2025-04-20 20:04:30 | 29 | 83 | 0.00 | 26 | 330 | 11.4 | 1009 | Thundershowers | 08KM |
| 2025-04-20 19:05:31 | 30 | 77 | 0.00 | 26 | 340 | 11.4 | 1008 | Night Thunderstorm | 10KM |
| 2025-04-20 17:01:34 | 31 | 75 | 26 | 290 | 9.5 | 1007 | Thunderstorm | 10 km | |
| 2025-04-20 15:58:33 | 32 | 69 | 26 | 330 | 19.0 | 1006 | Distant showers | 10 km | |
| 2025-04-20 14:58:11 | 32 | 70 | 26 | 330 | 20.9 | 1007 | Cloudy | 20 km | |
| 2025-04-20 12:59:31 | 33 | 70 | 0 | 26 | 320 | 15.2 | 1008 | Cloudy | 20 KM |